Tracking 22879 objects as of 22-Apr-2021
HD Live streaming from Space Station
objects crossing your sky now

STARLINK-2084

Track STARLINK-2084 now!
10-day predictions
STARLINK-2084 is classified as:


NORAD ID: 47368
Int'l Code: 2021-005V
Perigee: 553.6 km
Apogee: 555.2 km
Inclination: 53.1 °
Period: 95.6 minutes
Semi major axis: 6925 km
RCS: Unknown
Launch date: January 20, 2021
Source: United States (US)
Launch site: AIR FORCE EASTERN TEST RANGE (AFETR)
aabbcc
Your satellite tracking list
Your tracking list is empty




NASA's NSSDC Master Catalog

Two Line Element Set (TLE):
1 47368U 21005V   21111.58334491  .00001649  00000-0  12960-3 0  9990
2 47368  53.0556 146.2964 0001153  67.0030 157.6622 15.06398402  1752
Source of the keplerian elements: AFSPC